STARLINK-3752, 52312

Orbit data source: Space-Track

STARLINK-3752, 52312 is a payload satellite owned by SpaceX/Seattle (US) in LEO that was launched on Thu, 21 Apr 2022 UTC via an FALCON 9 launch vehicle from the Air Force Eastern Test Range (AFETR). Payload-class satellites include a variety of spacecraft equipped with specific instruments for various scientific and technological missions. These include communications satellites like Starlink; space stations such as the ISS; scientific satellites like the Hubble; Earth observation satellites from companies like Planet Labs, Umbra, and HawkEye 360; GPS; miniature CubeSats for education and research; and military/defense satellites.

Loading next visibility...
Identifier
52312, 2022-041BD
Orbit
LEO
Country
Flag of USUS
Related business
Manufacturer
SpaceX/Seattle
Mission
Operational Commercial Communications
Bus & Motor
STARLINK, Unknown motor
Mass
297 kg wet, ~275 kg dry
Launch date (UTC)
2022-04-21 (4 years ago)
Launch vehicle
FALCON 9
Launch site
Air Force Eastern Test Range (AFETR)
Object type
Payload
Rocket body
Debris
Shape & HBR
Box + 1 Pan, 10.1 m
Radar Cross Section
11.087 m², Large (>1 m²)

Expand to show TLE details & history
Last TLE update: 21 hours ago

TLE from 21 hours ago
0 STARLINK-3752
1 52312U 22041BD  26175.16891359 -.00000669  00000-0 -23921-4 0  9999
2 52312  53.1600 330.9281 0001173  90.1362 269.9763 15.08835939231941
Epoch: 2026-06-24T04:03Z
TLE epoch observation values (Epoch: 2026-06-24T04:03:14.134Z)
Latitude
-0.00007°
Longitude
-2.21084°
Altitude
540.648 km
Speed
7.593 km/s
True Right ascension
22h 03m 42s
True Declination
0° 00' 00"
Sunlit
Object was in full shadow at epoch
Visualization orbit readout
Latitude
Unknown
Longitude
Unknown
Altitude
Unknown
Speed
Unknown
Apparent Right ascension
Unknown
Apparent Declination
Unknown
Sunlit
N/A
Visualization observer readout
Local Sidereal Time
12:02:11
Azimuth
Unknown
Elevation
Unknown
Doppler factor
Unknown
Orbital elements
Apogee altitude
540.821 km
Perigee altitude
539.198 km
Semi-major axis
6,918.147 km
Eccentricity
0.00012
Inclination
53.16°
RAAN
330.9281°
Arg. of periapsis
90.1362°
True anomaly
269.96286°
Mean anomaly
269.9763°
Eccentric anomaly
269.96958°
Mean motion
3.77189 °/min
Orbital period
95.44 mins
BSTAR
-0.000023921
Loading maneuver chart data...
Computing Atmospheric mass density...

Documentation

Showing up to 5 results
|